Tracking 17925 objects as of 24-January-2017
HD Live streaming from Space Station
objects crossing your sky now

COSMOS 482 DESCENT CRAFT

Track COSMOS 482 DESCENT CRAFT now!
10-day predictions
COSMOS 482 DESCENT CRAFT is classified as:


NORAD ID: 6073
Int'l Code: 1972-023E
Perigee: 210.6 km
Apogee: 2,671.4 km
Inclination: 52.1 °
Period: 114.5 minutes
Semi major axis: 7812 km
RCS: 0.7153 m2 (medium)
Launch date: March 31, 1972
Source: Commonwealth of Independent States (former USSR) (CIS)
Launch site: TYURATAM MISSILE AND SPACE COMPLEX (TTMTR)
Your satellite tracking list
Your tracking list is empty





NASA's NSSDC Master Catalog

Two Line Element Set (TLE):
1 06073U 72023E   17023.52367641  .00014623  48345-5  75942-4 0  9993
2 06073  52.0611 198.1142 1574998 325.6396  25.1715 12.57353006342806
Source of the keplerian elements: AFSPC